Elmendorf Air Force Base, AK

10:22 PM AKDT on July 23, 2016 (GMT -0800)
Elmendorf Air Force Base

Weather History for PAED - July, 2013

Change the Weather History Date:

Friday, July 19, 2013

  Actual Average Record
Temperature  
Mean Temperature 66 °F -  
Max Temperature 70 °F 65 °F 78 °F (2003)
Min Temperature 63 °F 53 °F 48 °F (1955)
Cooling Degree Days 2    
Growing Degree Days 16 (Base 50)    
Moisture  
Dew Point 52 °F    
Average Humidity 60    
Maximum Humidity 67    
Minimum Humidity 50    
Precipitation  
Precipitation 0.02 in - - ()
Sea Level Pressure  
Sea Level Pressure 30.15 in    
Wind  
Wind Speed 16 mph (SW)    
Max Wind Speed 22 mph    
Max Gust Speed 31 mph    
Visibility 10 miles    
Events      
Averages and records for this station are not official NWS values.
T = Trace of Precipitation, MM = Missing Value Source: NWS Daily Summary

Daily Weather History Graph

Daily Weather History Graph

Search for Another Location

Airport or City:

Trip Planner

Search our weather history database for the weather conditions in past years. The results will help you decide how hot, cold, wet, or windy it might be!

Date:

Astronomy

Jul. 19, 2013 Rise Set
Actual Time 5:00 AM AKDT 11:09 PM AKDT
Civil Twilight 3:35 AM AKDT 12:31 AM AKDT
Nautical Twilight Sun does not set Sun does not set
Astronomical Twilight Sun does not set Sun does not set
Moon 8:17 PM AKDT (7/19) 1:59 AM AKDT (7/19)
Length of Visible Light 20h 55m
Length of Day
18h 08m
Waxing Gibbous, 88% of the Moon is Illuminated
Jul 19
Waxing Gibbous
Jul 22
Full
Jul 29
Last Quarter
Aug 6
New
Aug 14
First Quarter

Hourly Weather History & Observations

Time (AKDT) Temp. Dew Point Humidity Pressure Visibility Wind Dir Wind Speed Gust Speed Precip Events Conditions
12:55 AM 67.6 °F 55.4 °F 65% 30.12 in 10.0 mi SSW 20.7 mph 27.6 mph N/A   Clear
1:50 AM 68.0 °F 53.6 °F 60% 30.13 in 10.0 mi SSW 19.6 mph 31.1 mph N/A   Light Drizzle
1:55 AM 67.3 °F 54.3 °F 63% 30.13 in 10.0 mi SSW 19.6 mph - 0.00 in   Light Drizzle
1:56 AM 68.0 °F 53.6 °F 60% 30.13 in 10.0 mi SSW 21.9 mph - N/A   Partly Cloudy
2:55 AM 66.0 °F 53.4 °F 64% 30.14 in 10.0 mi SSW 18.4 mph 26.5 mph N/A   Clear
3:42 AM 66.2 °F 53.6 °F 64% 30.13 in 10.0 mi SSW 18.4 mph - N/A   Light Drizzle
3:49 AM 66.2 °F 53.6 °F 64% 30.13 in 10.0 mi South 19.6 mph - N/A   Clear
3:55 AM 65.5 °F 52.7 °F 63% 30.14 in 10.0 mi South 20.7 mph - 0.00 in   Clear
4:55 AM 64.2 °F 53.2 °F 67% 30.14 in 10.0 mi SSW 17.3 mph - N/A   Partly Cloudy
5:55 AM 63.3 °F 52.3 °F 67% 30.15 in 10.0 mi SW 20.7 mph - N/A   Clear
6:55 AM 63.5 °F 50.7 °F 63% 30.15 in 10.0 mi SSW 18.4 mph - N/A   Clear
7:55 AM 64.6 °F 50.7 °F 61% 30.16 in 10.0 mi SW 16.1 mph - N/A   Clear
8:55 AM 65.7 °F 50.7 °F 58% 30.17 in 10.0 mi SW 16.1 mph - N/A   Clear
9:55 AM 66.0 °F 50.4 °F 57% 30.18 in 10.0 mi SW 17.3 mph 26.5 mph N/A   Scattered Clouds
10:55 AM 67.1 °F 51.1 °F 56% 30.18 in 10.0 mi SSW 10.4 mph - N/A   Clear
11:55 AM 65.7 °F 52.0 °F 61% 30.19 in 10.0 mi West 11.5 mph - N/A   Mostly Cloudy
12:55 PM 65.8 °F 51.3 °F 59% 30.19 in 10.0 mi West 11.5 mph - N/A   Scattered Clouds
1:55 PM 69.6 °F 52.5 °F 54% 30.17 in 10.0 mi WSW 8.1 mph - N/A   Mostly Cloudy
2:55 PM 69.8 °F 52.3 °F 54% 30.17 in 10.0 mi West 12.7 mph - 0.02 in   Clear
3:55 PM 70.2 °F 52.3 °F 53% 30.17 in 10.0 mi WSW 13.8 mph - N/A   Partly Cloudy
4:55 PM 68.9 °F 52.5 °F 56% 30.16 in 10.0 mi West 11.5 mph - N/A   Scattered Clouds
5:55 PM 67.3 °F 51.3 °F 56% 30.17 in 10.0 mi West 10.4 mph - N/A   Mostly Cloudy
6:55 PM 66.0 °F 52.7 °F 62% 30.15 in 10.0 mi SSW 9.2 mph - N/A   Mostly Cloudy
7:55 PM 68.4 °F 49.1 °F 50% 30.14 in 10.0 mi WSW 5.8 mph - N/A   Overcast
8:55 PM 67.8 °F 51.1 °F 55% 30.13 in 10.0 mi West 5.8 mph - N/A   Scattered Clouds
9:55 PM 65.8 °F 51.1 °F 59% 30.12 in 10.0 mi West 3.5 mph - N/A   Mostly Cloudy
10:55 PM 63.7 °F 51.1 °F 64% 30.13 in 10.0 mi NW 4.6 mph - N/A   Overcast
11:55 PM 63.7 °F 51.1 °F 64% 30.14 in 10.0 mi ESE 3.5 mph - N/A   Mostly Cloudy